Погода в Александровке

Украина / Николаевская область     47°27′43″N   30°55′29″E
темп.,
°C
ветер,
м/с
пор.,
м/с
влажн.,
%
обл.,
%
осадки,
мм/ч
давл.,
гПа
погр.,
м
23 октября, сб
сб2300:00+15з335112 0.0 101530
03:00+12ссз345197 0.0 101654
06:00+12сз2253100 0.0 101643
09:00+13ссз2454100 0.0 1017144
12:00+13сз4658100 0.0 1018334
15:00+14ссз6755100 0.0 1019992
18:00+12зсз2557100 0.0 1020249
21:00+9зсз45587 0.0 102176
24 октября, вс
вс2400:00+8ссз3751100 0.0 1023138
03:00+7ссз4850100 0.0 1024193
06:00+5сз4125932 0.0 1024316
09:00+7сз611611 0.0 1026576
12:00+10сз78546 0.0 10261175
15:00+10сз894995 0.0 10261683
18:00+7сз7105317 0.0 1028763
21:00+7ссз7105586 0.0 10301008
25 октября, пн
пн2500:00+4ссз376799 0.0 1031176
03:00+3сз48675 0.0 1031188
06:00+2ссз48706 0.0 1032187
09:00+3с46635 0.0 1034276
12:00+7ссв44464 0.0 1034992
15:00+9с33350 0.0 10331175
18:00+6св22420 0.0 103311
21:00+4в22490 0.0 103317
26 октября, вт
вт2600:00+3вюв22540 0.0 103416
03:00+2вюв22573 0.0 103423
06:00+1юв33595 0.0 103336
09:00+3юв35511 0.0 1033168
12:00+9юв56355 0.0 1032787
15:00+11ююв55280 0.0 10301023
18:00+7ююв34390 0.0 102954
21:00+5ююв33480 0.0 102835
27 октября, ср
ср2700:00+4юв34540 0.0 102964
03:00+3юв478254 0.0 1028118
06:00+2юв348540 0.0 102756
09:00+4юв347521 0.0 1027130
12:00+9ююв235251 0.0 1026618
15:00+11зюз2246100 0.0 1024878
18:00+9ссз1159100 0.0 102410
21:00+8сз006599 0.0 102510